EW0139 Weather Reports


time (UTC)temp
C
wind
direction
speed
KPH
gust
KPH
rain 1hr
cm
rain 24hr
cm
rain mn
cm
humidity
%
barometer
mb
20260510190748 21 110 9.7 20.9 0.00 0.05 0.03 36 1015.9
20260510185753 20 80 8.0 24.1 0.00 0.05 0.03 36 1016.2
20260510184752 20 67 9.7 22.5 0.00 0.05 0.03 38 1016.3
20260510183756 20 107 20.9 24.1 0.00 0.05 0.03 36 1016.5
20260510182817 20 130 20.9 24.1 0.00 0.05 0.03 37 1016.5
20260510181755 20 107 24.1 25.7 0.00 0.05 0.03 37 1016.6
20260510180819 20 113 14.5 29.0 0.00 0.05 0.03 36 1016.8
20260510175758 19 105 16.1 25.7 0.00 0.05 0.03 38 1016.9
20260510174738 19 102 11.3 25.7 0.00 0.05 0.03 36 1017.0
20260510173743 18 123 17.7 25.7 0.00 0.05 0.03 37 1017.2
20260510172747 18 109 9.7 22.5 0.00 0.05 0.03 39 1017.4
20260510171747 18 113 14.5 24.1 0.00 0.05 0.03 40 1017.5
20260510170749 18 111 17.7 25.7 0.00 0.05 0.03 41 1017.7
20260510165748 17 86 19.3 25.7 0.00 0.05 0.03 40 1017.8
20260510164751 17 90 12.9 22.5 0.00 0.05 0.03 43 1017.8
20260510163756 17 80 22.5 24.1 0.00 0.05 0.03 40 1018.0
20260510162815 16 123 16.1 27.4 0.00 0.05 0.03 41 1018.1
20260510161758 16 106 19.3 25.7 0.00 0.05 0.03 40 1018.1
20260510160758 16 71 14.5 29.0 0.00 0.05 0.03 42 1018.2
20260510155741 15 123 17.7 25.7 0.00 0.05 0.03 43 1018.3
20260510154743 15 106 11.3 27.4 0.00 0.05 0.03 44 1018.3
20260510153744 15 111 16.1 22.5 0.00 0.05 0.03 43 1018.4
20260510152744 15 94 14.5 20.9 0.00 0.05 0.03 43 1018.4
20260510151750 14 99 14.5 22.5 0.00 0.05 0.03 44 1018.5
20260510150752 13 86 12.9 19.3 0.00 0.05 0.03 44 1018.7
20260510145752 13 102 11.3 19.3 0.00 0.05 0.03 44 1018.8
20260510144750 13 94 14.5 17.7 0.00 0.05 0.03 43 1018.8
20260510143751 12 90 12.9 17.7 0.00 0.05 0.03 47 1018.8
20260510142754 12 98 14.5 16.1 0.00 0.05 0.03 46 1019.0
20260510141754 12 86 8.0 16.1 0.00 0.05 0.03 48 1019.1
20260510140754 11 78 14.5 20.9 0.00 0.05 0.03 46 1019.0
20260510135754 11 86 12.9 19.3 0.00 0.05 0.03 47 1019.1
20260510134814 10 90 14.5 17.7 0.00 0.05 0.03 50 1019.1
20260510133758 10 96 16.1 22.5 0.00 0.05 0.03 47 1019.1
20260510132756 10 107 9.7 14.5 0.00 0.05 0.03 48 1019.2
20260510131800 8 326 0.0 4.8 0.00 0.05 0.03 51 1019.3
20260510130741 8 326 3.2 8.0 0.00 0.05 0.03 55 1019.3
20260510125747 7 326 3.2 8.0 0.00 0.05 0.03 55 1019.4
20260510124749 6 325 3.2 9.7 0.00 0.05 0.03 57 1019.4
20260510123750 6 329 9.7 9.7 0.00 0.05 0.03 55 1019.3
20260510122752 6 29 1.6 6.4 0.00 0.05 0.03 54 1019.3
20260510121749 6 29 4.8 8.0 0.00 0.05 0.03 54 1019.4
20260510120755 6 55 4.8 6.4 0.00 0.05 0.03 54 1019.4
20260510115757 6 56 0.0 6.4 0.00 0.05 0.03 56 1019.4
20260510114756 7 57 3.2 6.4 0.00 0.05 0.03 54 1019.3
20260510113739 7 57 6.4 8.0 0.00 0.05 0.03 53 1019.3
20260510112747 6 94 1.6 8.0 0.00 0.05 0.03 55 1019.3
20260510111748 6 261 1.6 6.4 0.00 0.05 0.03 60 1019.5
20260510110750 6 1 6.4 8.0 0.00 0.05 0.03 61 1019.4
20260510105750 6 36 3.2 6.4 0.00 0.05 0.03 60 1019.2
20260510104810 6 36 1.6 6.4 0.00 0.05 0.03 59 1019.0
20260510103754 6 36 1.6 4.8 0.00 0.05 0.03 59 1019.0
20260510102754 6 36 3.2 4.8 0.00 0.05 0.03 59 1019.1
20260510101755 6 36 3.2 6.4 0.00 0.05 0.03 59 1019.3
20260510100754 6 36 6.4 6.4 0.00 0.05 0.03 57 1019.2
20260510095740 7 36 0.0 3.2 0.00 0.05 0.03 56 1019.3
20260510094740 7 36 1.6 6.4 0.00 0.05 0.03 57 1019.2
20260510093741 7 32 0.0 6.4 0.00 0.05 0.03 54 1019.1
20260510092745 8 74 0.0 4.8 0.00 0.05 0.03 54 1019.1
20260510091810 8 73 0.0 6.4 0.00 0.05 0.03 53 1019.1
20260510090749 8 74 0.0 11.3 0.00 0.05 0.03 53 1019.1
20260510085751 8 53 8.0 8.0 0.00 0.05 0.03 55 1019.0
20260510084750 8 65 0.0 0.0 0.00 0.05 0.03 58 1019.0
20260510083753 8 65 0.0 6.4 0.00 0.05 0.03 61 1019.0
20260510082817 8 65 3.2 4.8 0.00 0.05 0.03 62 1019.2
20260510081755 9 64 1.6 4.8 0.00 0.05 0.03 60 1019.1
20260510080757 10 64 1.6 3.2 0.00 0.05 0.03 56 1019.2
20260510075756 10 65 0.0 11.3 0.00 0.05 0.03 56 1019.0
20260510074742 10 63 6.4 9.7 0.00 0.05 0.03 54 1018.9
20260510073742 10 42 3.2 14.5 0.00 0.05 0.03 54 1018.9
20260510072802 10 56 4.8 16.1 0.00 0.05 0.03 53 1018.9
20260510071745 10 61 1.6 11.3 0.00 0.05 0.03 55 1018.8
20260510070746 10 46 9.7 9.7 0.00 0.05 0.03 54 1019.0
20260510065808 10 56 3.2 14.5 0.03 0.05 0.03 52 1018.9
20260510064752 10 42 3.2 9.7 0.03 0.05 0.03 55 1018.8
20260510063754 10 34 4.8 14.5 0.05 0.05 0.03 55 1018.6
20260510062755 10 30 6.4 11.3 0.05 0.05 0.03 56 1018.8
20260510061758 10 41 9.7 16.1 0.05 0.05 0.03 56 1018.6
20260510060743 10 28 9.7 20.9 0.05 0.05 0.03 54 1018.5
20260510055744 10 32 16.1 16.1 0.03 0.03 0.03 55 1018.5
20260510054747 10 31 8.0 14.5 0.03 0.03 0.03 58 1018.6
20260510053751 11 30 3.2 9.7 0.00 0.00 0.00 52 1018.8
20260510052757 12 13 4.8 8.0 0.00 0.00 0.00 48 1018.6
20260510051819 12 354 6.4 9.7 0.00 0.00 0.00 45 1018.6
20260510050757 12 355 8.0 11.3 0.00 0.00 0.00 42 1018.7
20260510045758 12 358 4.8 6.4 0.00 0.00 0.00 43 1018.5
20260510044742 12 355 3.2 4.8 0.00 0.00 0.00 44 1018.3
20260510043748 13 355 3.2 4.8 0.00 0.00 0.00 46 1018.2
20260510042749 13 355 0.0 4.8 0.00 0.00 0.00 46 1018.1
20260510041750 13 355 3.2 9.7 0.00 0.00 0.00 44 1018.0
20260510040751 13 346 6.4 14.5 0.00 0.00 0.00 43 1018.0
20260510035812 13 323 1.6 3.2 0.00 0.00 0.00 46 1017.8
20260510034759 13 323 1.6 4.8 0.00 0.00 0.00 45 1017.7
20260510033759 13 323 1.6 6.4 0.00 0.00 0.00 46 1017.6
20260510032800 13 323 4.8 6.4 0.00 0.00 0.00 51 1017.3
20260510031759 13 323 4.8 8.0 0.00 0.00 0.00 52 1017.2
20260510030743 13 321 6.4 8.0 0.00 0.00 0.00 48 1017.0
20260510025743 12 315 4.8 4.8 0.00 0.00 0.00 48 1016.8
20260510024746 12 315 4.8 4.8 0.00 0.00 0.00 48 1016.5
20260510023750 13 315 1.6 4.8 0.00 0.00 0.00 46 1016.3
20260510022753 13 315 1.6 4.8 0.00 0.00 0.00 44 1016.3
20260510021754 15 315 3.2 4.8 0.00 0.00 0.00 43 1016.0
20260510020755 15 315 1.6 6.4 0.00 0.00 0.00 40 1016.0
20260510015755 16 315 4.8 8.0 0.00 0.00 0.00 40 1016.0
20260510014817 16 312 6.4 9.7 0.00 0.00 0.00 39 1015.9
20260510013742 17 317 8.0 12.9 0.00 0.00 0.00 37 1015.8
20260510012803 17 321 9.7 17.7 0.00 0.00 0.00 37 1015.7
20260510011741 17 292 11.3 17.7 0.00 0.00 0.00 36 1015.7
20260510010804 17 314 11.3 24.1 0.00 0.00 0.00 35 1015.6
20260510005748 17 298 20.9 20.9 0.00 0.00 0.00 35 1015.5
20260510004751 18 331 11.3 17.7 0.00 0.00 0.00 36 1015.5
20260510003753 18 344 8.0 19.3 0.00 0.00 0.00 35 1015.6
20260510002754 18 304 11.3 27.4 0.00 0.00 0.00 34 1015.5
20260510001752 18 258 11.3 19.3 0.00 0.00 0.00 36 1015.5
20260510000756 18 298 14.5 24.1 0.00 0.00 0.00 34 1015.6
20260509235816 17 301 24.1 30.6 0.00 0.00 0.00 35 1015.6
20260509234755 17 293 20.9 32.2 0.00 0.00 0.00 35 1015.5
20260509233757 18 312 14.5 22.5 0.00 0.00 0.00 34 1015.4
20260509232759 18 257 11.3 16.1 0.00 0.00 0.00 36 1015.3
20260509231759 17 283 9.7 22.5 0.00 0.00 0.00 36 1015.4
20260509230819 18 281 16.1 27.4 0.00 0.00 0.00 36 1015.4
20260509225758 17 299 9.7 20.9 0.00 0.00 0.00 37 1015.3
20260509224742 18 302 11.3 30.6 0.00 0.00 0.00 35 1015.3
20260509223746 17 294 14.5 22.5 0.00 0.00 0.00 36 1015.3
20260509222806 18 313 8.0 27.4 0.00 0.00 0.00 35 1015.3
20260509221743 17 296 6.4 16.1 0.00 0.00 0.00 35 1015.3
20260509220747 17 287 6.4 19.3 0.00 0.00 0.00 37 1015.3
20260509215752 18 304 16.1 30.6 0.00 0.00 0.00 34 1015.4
20260509214752 17 302 9.7 20.9 0.00 0.00 0.00 34 1015.3
20260509213813 17 313 11.3 19.3 0.00 0.00 0.00 36 1015.6
20260509212751 17 278 16.1 22.5 0.00 0.00 0.00 36 1015.7
20260509211748 17 263 11.3 17.7 0.00 0.00 0.00 37 1015.7
20260509210748 17 277 12.9 20.9 0.00 0.00 0.00 35 1015.8
20260509205756 17 262 17.7 37.0 0.00 0.00 0.00 37 1015.7
20260509204758 17 277 9.7 29.0 0.00 0.00 0.00 36 1015.7
20260509203756 17 321 8.0 27.4 0.00 0.00 0.00 36 1015.6
20260509202741 17 322 16.1 25.7 0.00 0.00 0.00 35 1015.5
20260509201744 17 271 14.5 20.9 0.00 0.00 0.00 35 1015.6
20260509200745 16 262 11.3 20.9 0.00 0.00 0.00 35 1015.7
20260509195746 16 282 3.2 17.7 0.00 0.00 0.00 37 1015.5
20260509194749 16 228 9.7 22.5 0.00 0.00 0.00 36 1015.7
20260509193750 16 315 6.4 11.3 0.00 0.00 0.00 38 1015.6
20260509192756 16 240 4.8 16.1 0.00 0.00 0.00 40 1015.7
20260509191758 16 354 6.4 19.3 0.00 0.00 0.00 36 1015.7